Location: Knowlton
(51.2333°N, 1.2667°E)
Time: 04:24:49
(UTC+00:00)

Cosmos 44 Rocket - Pass Details

Date: 18 April 2021
Orbit: 636 x 754 km, 65.1° (Epoch: 06 May)

Event Time Altitude Azimuth Distance (km) Brightness Sun altitude
Exits shadow 22:36:36 69° 88° (E) 795 3.4 -25.4°
Drops below altitude 10° 22:41:24 10° 44° (NE) 2,278 6.2 -25.6°
Sets 22:43:49 0° 42° (NE) 3,213 7.1 -25.8°
